Погода в Сканесе

Тунис     35°46′14″N   10°49′22″E
темп.,
°C
ветер,
м/с
пор.,
м/с
влажн.,
%
обл.,
%
осадки,
мм/ч
давл.,
гПа
погр.,
м
15 августа, пн
пн1501:00+30ю35502 0.0 1009124
04:00+30ю47525 0.0 1008166
07:00+30ю58543 0.0 1009213
10:00+35ююз443623 0.0 1009401
13:00+37в2339100 0.0 10071344
16:00+36вюв884257 0.0 1006705
19:00+35сз9113894 0.0 1007374
22:00+31с7115747 0.0 1012507
16 августа, вт
вт1601:00+30св576378 0.0 1011290
04:00+30всв116666 0.0 1010106
07:00+30ююз225838 0.0 1010127
10:00+33в124668 0.0 1012380
13:00+34в43455 0.0 1011795
16:00+32в895898 0.0 1011294
19:00+31вюв466534 0.0 1012301
22:00+31вюв33635 0.0 1014133
17 августа, ср
ср1701:00+30юв23633 0.0 101386
04:00+30ю34610 0.0 1011100
07:00+30ю34595 0.0 1012139
10:00+35юв46415 0.0 1012486
13:00+38ююв79281 0.0 10101000
16:00+39ююв89260 0.0 10091056
19:00+34вюв2343100 0.0 1010298
22:00+32юв711554 0.0 1011239
18 августа, чт
чт1801:00+31ююв34609 0.0 1012174
04:00+30юв47661 0.0 1010204
07:00+30ююв6116518 0.0 1011284
10:00+37ююз71029100 0.0 1010527
13:00+42ююз692057 0.0 10081432
16:00+42ююв78201 0.0 10062404
19:00+36ююв1015340 0.0 1006314
22:00+30св56695 0.0 1010196
19 августа, пт
пт1901:00+29с897413 0.0 1012533
04:00+28с8117338 0.0 1012681
07:00+28с911715 0.0 1013666
10:00+29с810600 0.0 1014914
13:00+31ссв78535 0.0 1013890
16:00+31ссв1012490 0.0 1013706
19:00+29ссв1113549 0.0 1013863
22:00+28ссз1012600 0.0 1015932